This demonstration page uses our WeatherBlox Daily Observations layout. Learn more.

Hourly Observations for December 6, 2016

Temp ( °F °C ) Dew Point ( °F °C ) Humidity (%) Winds ( mph kmh ) Pressure ( in mb ) Visibility ( mi km ) Precip ( " mm )
12:15 am 00:15 Cloudy 28 -2.3 14 -9.8 57 57 NNW 14 22 30.06 1018 10 16.0934 0 0
12:35 am 00:35 Cloudy 28 -2.5 15 -9.7 58 58 NNW 16 26 30.06 1018 10 16.0934 0 0
12:55 am 00:55 Cloudy 27 -2.6 14 -9.8 58 58 NNW 17 28 30.06 1018 10 16.0934 0 0
1:15 am 01:15 Cloudy 27 -2.8 14 -9.8 59 59 NNW 13 20 30.06 1018 10 16.0934 0 0
1:35 am 01:35 Mostly Cloudy 26 -3.2 15 -9.7 61 61 NW 10 17 30.06 1018 10 16.0934 0 0
1:55 am 01:55 Partly Cloudy 25 -4 14 -9.9 64 64 NW 10 17 30.12 1020 10 16.0934 0 0
2:15 am 02:15 Partly Cloudy 23 -4.9 15 -9.7 69 69 NW 6 9 30.12 1020 10 16.0934 0 0
2:35 am 02:35 Partly Cloudy 22 -5.7 15 -9.7 74 74 NW 7 11 30.12 1020 10 16.0934 0 0
2:55 am 02:55 Partly Cloudy 22 -5.4 15 -9.5 73 73 WNW 9 15 30.12 1020 10 16.0934 0 0
3:15 am 03:15 Clear 22 -5.4 14 -9.9 71 71 WNW 6 9 30.12 1020 10 16.0934 0 0
3:35 am 03:35 Clear 21 -6.3 14 -10 75 75 WNW 7 11 30.12 1020 10 16.0934 0 0
3:55 am 03:55 Clear 20 -6.8 14 -10.2 77 77 WNW 6 9 30.15 1021 10 16.0934 0 0
4:15 am 04:15 Clear 20 -6.8 14 -10.2 77 77 WNW 8 13 30.18 1022 10 16.0934 0 0
4:35 am 04:35 Partly Cloudy 21 -6.1 14 -9.9 75 75 NW 8 13 30.15 1021 10 16.0934 0 0
4:55 am 04:55 Partly Cloudy 22 -5.7 14 -10.1 71 71 NW 12 19 30.15 1021 10 16.0934 0 0
5:15 am 05:15 Clear 22 -5.5 13 -10.5 68 68 NW 14 22 30.15 1021 10 16.0934 0 0
5:35 am 05:35 Clear 22 -5.7 13 -10.7 68 68 NW 13 20 30.15 1021 10 16.0934 0 0
5:55 am 05:55 Clear 21 -6 12 -11 68 68 NW 13 20 30.15 1021 10 16.0934 0 0
6:15 am 06:15 Clear 21 -6.1 12 -11.3 67 67 NW 13 20 30.15 1021 10 16.0934 0 0
6:35 am 06:35 Clear 20 -6.4 11 -11.6 67 67 WNW 14 22 30.21 1023 10 16.0934 0 0
6:55 am 06:55 Clear 20 -6.8 11 -11.9 67 67 NW 12 19 30.21 1023 10 16.0934 0 0
7:15 am 07:15 Clear 19 -7.1 10 -12.1 68 68 WNW 9 15 30.21 1023 10 16.0934 0 0
7:35 am 07:35 Clear 18 -8 9 -12.6 70 70 NW 8 13 30.21 1023 10 16.0934 0 0
7:55 am 07:55 Sunny 18 -7.6 9 -12.6 68 68 WNW 7 11 30.21 1023 10 16.0934 0 0
8:15 am 08:15 Sunny 18 -7.9 9 -12.8 68 68 WNW 7 11 30.21 1023 10 16.0934 0 0
8:35 am 08:35 Sunny 20 -6.9 10 -12.3 66 66 W 9 15 30.24 1024 10 16.0934 0 0
8:55 am 08:55 Sunny 22 -5.7 10 -12.1 61 61 WNW 12 19 30.18 1022 10 16.0934 0 0
9:15 am 09:15 Sunny 23 -5 10 -12.5 56 56 WNW 12 19 30.21 1023 10 16.0934 0 0
9:35 am 09:35 Sunny 25 -4 10 -12.4 52 52 NW 14 22 30.21 1023 10 16.0934 0 0
9:55 am 09:55 Sunny 26 -3.2 11 -11.9 51 51 NW 13 20 30.21 1023 10 16.0934 0 0
10:15 am 10:15 Sunny 28 -2.4 9 -13 44 44 NW 15 24 30.18 1022 10 16.0934 0 0
10:35 am 10:35 Sunny 29 -1.6 8 -13.5 40 40 NNW 18 30 30.18 1022 10 16.0934 0 0
10:55 am 10:55 Sunny 30 -1.1 8 -13.4 39 39 NW 14 22 30.18 1022 10 16.0934 0 0
11:15 am 11:15 Sunny 31 -0.7 8 -13.1 39 39 NW 17 28 30.18 1022 10 16.0934 0 0
11:35 am 11:35 Sunny 31 -0.5 8 -13.4 37 37 NNW 16 26 30.15 1021 10 16.0934 0 0
11:55 am 11:55 Sunny 31 -0.5 8 -13.4 37 37 NW 17 28 30.15 1021 10 16.0934 0 0
12:15 pm 12:15 Sunny 32 0 8 -13.3 36 36 NW 14 22 30.12 1020 10 16.0934 0 0
12:35 pm 12:35 Sunny 32 0.1 8 -13.5 36 36 NW 15 24 30.12 1020 10 16.0934 0 0
12:55 pm 12:55 Sunny 33 0.3 7 -13.7 34 34 NW 15 24 30.12 1020 10 16.0934 0 0
1:15 pm 13:15 Sunny 33 0.6 7 -13.8 33 33 NW 13 20 30.12 1020 10 16.0934 0 0
1:35 pm 13:35 Sunny 34 1 7 -13.9 32 32 NW 10 17 30.12 1020 10 16.0934 0 0
1:55 pm 13:55 Sunny 33 0.7 6 -14.5 31 31 WNW 15 24 30.09 1019 10 16.0934 0 0
2:15 pm 14:15 Sunny 34 1.3 6 -14.5 30 30 NW 13 20 30.09 1019 10 16.0934 0 0
2:35 pm 14:35 Sunny 34 1.2 6 -14.7 30 30 NW 14 22 30.09 1019 10 16.0934 0 0
2:55 pm 14:55 Sunny 35 1.5 5 -15.1 28 28 NW 15 24 30.09 1019 10 16.0934 0 0
3:15 pm 15:15 Sunny 35 1.4 5 -15 29 29 NW 13 20 30.09 1019 10 16.0934 0 0
3:35 pm 15:35 Sunny 35 1.5 4 -15.5 27 27 WNW 9 15 30.09 1019 10 16.0934 0 0
3:55 pm 15:55 Sunny 34 1.3 4 -15.5 28 28 WNW 13 20 30.09 1019 10 16.0934 0 0
4:15 pm 16:15 Sunny 34 1.1 4 -15.5 28 28 W 9 15 30.09 1019 10 16.0934 0 0
4:35 pm 16:35 Sunny 33 0.8 3 -16 27 27 WNW 8 13 30.09 1019 10 16.0934 0 0
4:55 pm 16:55 Sunny 32 -0.2 4 -15.8 30 30 WNW 5 7 30.15 1021 10 16.0934 0 0
5:15 pm 17:15 Clear 30 -1.1 4 -15.7 32 32 WNW 5 7 30.15 1021 10 16.0934 0 0
5:35 pm 17:35 Clear 28 -2.3 3 -16 34 34 NW 7 11 30.15 1021 10 16.0934 0 0
5:55 pm 17:55 Clear 27 -2.6 3 -16 35 35 NW 6 9 30.15 1021 10 16.0934 0 0
6:15 pm 18:15 Clear 25 -4.1 3 -15.9 40 40 WNW 3 6 30.18 1022 10 16.0934 0 0
6:35 pm 18:35 Clear 23 -4.8 4 -15.4 44 44 WNW 3 6 30.18 1022 10 16.0934 0 0
6:55 pm 18:55 Partly Cloudy 25 -4.1 5 -15.2 42 42 WNW 5 7 30.18 1022 10 16.0934 0 0
7:15 pm 19:15 Clear 26 -3.6 4 -15.4 40 40 W 3 6 30.21 1023 10 16.0934 0 0
7:35 pm 19:35 Clear 21 -5.9 5 -15.1 49 49 NNW 3 6 30.24 1024 10 16.0934 0 0
7:55 pm 19:55 Clear 23 -4.9 5 -14.9 46 46 NNW 3 6 30.21 1023 10 16.0934 0 0
8:15 pm 20:15 Mostly Cloudy 24 -4.7 6 -14.2 48 48 Calm 30.21 1023 10 16.0934 0 0
8:35 pm 20:35 Partly Cloudy 23 -5 7 -14.1 49 49 ENE 5 7 30.24 1024 10 16.0934 0 0
8:55 pm 20:55 Clear 22 -5.6 8 -13.4 55 55 Calm 30.27 1025 10 16.0934 0 0
9:15 pm 21:15 Clear 20 -6.4 8 -13.6 57 57 NE 5 7 30.27 1025 10 16.0934 0 0
9:35 pm 21:35 Partly Cloudy 19 -7.4 8 -13.1 64 64 NE 3 6 30.27 1025 10 16.0934 0 0
9:55 pm 21:55 Mostly Cloudy 19 -7 8 -13.1 62 62 NE 5 7 30.27 1025 10 16.0934 0 0
10:15 pm 22:15 Cloudy 20 -6.6 10 -12.2 65 65 NE 5 7 30.27 1025 10 16.0934 0 0
10:35 pm 22:35 Cloudy 22 -5.5 11 -11.8 62 62 NE 5 7 30.3 1026 10 16.0934 0 0
10:55 pm 22:55 Cloudy 22 -5.5 10 -12 61 61 NE 5 7 30.3 1026 10 16.0934 0 0
11:15 pm 23:15 Cloudy 22 -5.4 10 -12 60 60 NE 6 9 30.3 1026 10 16.0934 0 0
11:35 pm 23:35 Cloudy 23 -5 9 -13 54 54 NNE 7 11 30.27 1025 10 16.0934 0 0
11:55 pm 23:55 Cloudy 23 -5.1 9 -12.7 56 56 NNE 3 6 30.27 1025 10 16.0934 0 0

Powered by AerisWeather